Scappoose, OR

6:04 AM PST on November 20, 2017 (GMT -0800)
Scappoose Industrial

Weather History for KSPB - August, 2013

Change the Weather History Date:

Monday, August 26, 2013

  Actual Average Record
Temperature  
Mean Temperature 68 °F -  
Max Temperature 81 °F - 96 °F (2016)
Min Temperature 59 °F - 49 °F (2012)
Degree Days  
Heating Degree Days 0    
Month to date heating degree days 6  
Since 1 June heating degree days 126  
Since 1 July heating degree days 24  
Cooling Degree Days 5    
Month to date cooling degree days 107  
Year to date cooling degree days 293  
Since 1 June cooling degree days 285  
Growing Degree Days 18 (Base 50)    
Moisture  
Dew Point 57 °F    
Average Humidity 68    
Maximum Humidity 97    
Minimum Humidity 38    
Precipitation  
Precipitation 0.10 in - 0.10 in (2013)
Month to date precipitation 0.22  
Year to date precipitation 14.11  
Sea Level Pressure  
Sea Level Pressure 29.92 in    
Wind  
Wind Speed 5 mph (South)    
Max Wind Speed 16 mph    
Max Gust Speed 23 mph    
Visibility 10 miles    
Events Rain    
T = Trace of Precipitation, MM = Missing Value Source: NWS Daily Summary

Daily Weather History Graph

Daily Weather History Graph

Search for Another Location

Airport or City:

Trip Planner

Search our weather history database for the weather conditions in past years. The results will help you decide how hot, cold, wet, or windy it might be!

Date:

Astronomy

Aug. 26, 2013 Rise Set
Actual Time 6:25 AM PDT 7:59 PM PDT
Civil Twilight 5:54 AM PDT 8:31 PM PDT
Nautical Twilight 5:16 AM PDT 9:08 PM PDT
Astronomical Twilight 4:35 AM PDT 9:49 PM PDT
Moon 10:52 PM PDT (8/26) 12:54 PM PDT (8/26)
Length of Visible Light 14h 36m
Length of Day
13h 34m
Waning Gibbous, 65% of the Moon is Illuminated
Aug 26
Waning Gibbous
Aug 28
Last Quarter
Sep 5
New
Sep 12
First Quarter
Sep 19
Full

Hourly Weather History & Observations

Time (PDT) Temp. Dew Point Humidity Pressure Visibility Wind Dir Wind Speed Gust Speed Precip Events Conditions
12:53 AM 63.0 °F 60.1 °F 90% 29.89 in 10.0 mi Calm Calm - 0.01 in   Overcast
1:53 AM 63.0 °F 60.1 °F 90% 29.89 in 10.0 mi Calm Calm - 0.00 in   Overcast
2:35 AM 62.6 °F 60.8 °F 94% 29.90 in 10.0 mi Calm Calm - 0.01 in Rain Light Rain
2:42 AM 62.6 °F 60.8 °F 94% 29.90 in 10.0 mi Calm Calm - 0.01 in   Overcast
2:53 AM 62.1 °F 60.1 °F 93% 29.89 in 10.0 mi Calm Calm - 0.01 in   Overcast
3:28 AM 62.6 °F 59.0 °F 88% 29.90 in 10.0 mi Calm Calm - N/A   Overcast
3:43 AM 60.8 °F 59.0 °F 94% 29.90 in 10.0 mi Calm Calm - N/A   Overcast
3:53 AM 62.1 °F 60.1 °F 93% 29.90 in 10.0 mi Calm Calm - N/A   Overcast
4:26 AM 62.6 °F 60.8 °F 94% 29.90 in 10.0 mi Calm Calm - N/A   Overcast
4:53 AM 61.0 °F 59.0 °F 93% 29.90 in 10.0 mi Calm Calm - N/A   Overcast
5:53 AM 61.0 °F 59.0 °F 93% 29.91 in 10.0 mi Calm Calm - N/A   Overcast
6:53 AM 60.1 °F 57.0 °F 90% 29.91 in 10.0 mi SSW 3.5 mph - N/A   Partly Cloudy
7:53 AM 62.1 °F 57.0 °F 84% 29.91 in 10.0 mi Variable 3.5 mph - N/A   Clear
8:53 AM 64.0 °F 57.0 °F 78% 29.91 in 10.0 mi Variable 3.5 mph - N/A   Clear
9:53 AM 66.0 °F 55.9 °F 70% 29.91 in 10.0 mi South 4.6 mph - N/A   Scattered Clouds
10:53 AM 71.1 °F 54.0 °F 55% 29.91 in 10.0 mi SE 10.4 mph - N/A   Partly Cloudy
11:53 AM 73.0 °F 54.0 °F 51% 29.91 in 10.0 mi South 8.1 mph - N/A   Mostly Cloudy
12:53 PM 73.9 °F 50.0 °F 43% 29.90 in 10.0 mi South 9.2 mph 18.4 mph N/A   Partly Cloudy
1:53 PM 75.9 °F 48.9 °F 38% 29.90 in 10.0 mi South 8.1 mph 16.1 mph N/A   Partly Cloudy
2:53 PM 75.9 °F 48.0 °F 37% 29.89 in 10.0 mi SSE 10.4 mph - N/A   Mostly Cloudy
3:53 PM 75.9 °F 48.0 °F 37% 29.88 in 10.0 mi SSE 6.9 mph - N/A   Mostly Cloudy
4:53 PM 75.0 °F 48.0 °F 38% 29.90 in 10.0 mi SSW 8.1 mph - N/A   Overcast
5:53 PM 70.0 °F 53.1 °F 55% 29.93 in 10.0 mi West 10.4 mph - 0.00 in   Overcast
6:53 PM 66.0 °F 55.0 °F 68% 29.93 in 10.0 mi SW 5.8 mph - 0.00 in   Overcast
7:53 PM 63.0 °F 57.0 °F 81% 29.95 in 10.0 mi SSE 6.9 mph - 0.00 in   Overcast
8:53 PM 62.1 °F 57.9 °F 86% 29.96 in 10.0 mi South 3.5 mph - 0.00 in Rain Light Rain
9:49 PM 62.6 °F 59.0 °F 88% 29.97 in 10.0 mi Calm Calm - 0.00 in Rain Light Rain
9:53 PM 62.1 °F 59.0 °F 90% 29.97 in 10.0 mi Calm Calm - 0.00 in Rain Light Rain
10:53 PM 62.1 °F 59.0 °F 90% 29.97 in 10.0 mi East 6.9 mph - 0.01 in Rain Light Rain
11:53 PM 61.0 °F 59.0 °F 93% 29.97 in 7.0 mi Calm Calm - 0.02 in Rain Light Rain